Observations
| Time | Sensor | AQI | SAQ | Temp °C | Hum % | Pres Pa | CO μg/m³ | H₂S μg/m³ | NO μg/m³ | NO₂ μg/m³ | O₃ μg/m³ | SO₂ μg/m³ | CO₂e PPM | VOC PPM | PM1 μg/m³ | PM2.5 μg/m³ | PM4 μg/m³ | PM10 μg/m³ | TPS µm |
|---|---|---|---|---|---|---|---|---|---|---|---|---|---|---|---|---|---|---|---|
| Tuesday 11 August 2026 | |||||||||||||||||||
| 01:43 | Trim Patrick St | 1 | 12.8 | 73 | 38,460 | 0.24 | 5.53 | 3.8 | 30.1 | 12.33 | 0 | 3.71 | 7.13 | 7.85 | |||||
| 01:43 | Trim Market St | 2 | 14.5 | 65 | 57,626 | 0.27 | 0 | 2.44 | 13.85 | 38.04 | 0 | 1.43 | 3.8 | 5.55 | |||||
| 01:42 | Trim Patrick St | 1 | 12.8 | 72 | 38,460 | 0.26 | 5.74 | 3.79 | 33.72 | 10.66 | 0 | 3.71 | 6.43 | 7.07 | |||||
| 01:41 | Trim Patrick St | 1 | 12.8 | 72 | 38,460 | 0.26 | 5.4 | 3.8 | 33.26 | 10.67 | 0 | 3.71 | 7.15 | 7.86 | |||||
| 01:40 | Trim Patrick St | 1 | 12.8 | 72 | 38,460 | 0.28 | 5.3 | 3.72 | 31.89 | 10.78 | 0 | 3.71 | 6.44 | 7.08 | |||||
| 01:40 | Trim Market St | 2 | 14.6 | 64 | 57,648 | 0.27 | 0 | 2.64 | 16.02 | 35.93 | 0 | 1.43 | 2.82 | 4.23 | |||||
| 01:39 | Trim Patrick St | 1 | 12.8 | 72 | 38,460 | 0.26 | 5.27 | 3.65 | 33.71 | 10.99 | 0 | 3.71 | 7.16 | 7.87 | |||||
| 01:38 | Trim Patrick St | 1 | 12.9 | 72 | 38,460 | 0.26 | 5.2 | 3.73 | 32.28 | 10.94 | 0 | 3.71 | 7.87 | 8.66 | |||||
| 01:38 | Trim Market St | 2 | 14.6 | 64 | 57,663 | 0.28 | 0 | 1.95 | 12.23 | 47.02 | 0 | 2.14 | 2.83 | 4.23 | |||||
| 01:37 | Trim Patrick St | 1 | 12.9 | 72 | 38,460 | 0.25 | 5.38 | 3.69 | 32.27 | 12.3 | 0 | 3.71 | 7.16 | 7.88 | |||||
| 01:36 | Trim Patrick St | 1 | 12.9 | 72 | 38,460 | 0.26 | 5.4 | 3.76 | 32.26 | 9.68 | 0 | 3.71 | 7.17 | 7.89 | |||||
| 01:36 | Trim Market St | 2 | 14.6 | 64 | 57,665 | 0.27 | 0 | 2.14 | 14.91 | 37.7 | 0 | 1.43 | 3.82 | 6.87 | |||||
| 01:35 | Trim Patrick St | 1 | 12.9 | 72 | 38,460 | 0.26 | 5.04 | 3.76 | 33.62 | 10.46 | 0 | 3.71 | 7.17 | 7.89 | |||||
| 01:35 | Trim Market St | 2 | 14.6 | 64 | 57,669 | 0.27 | 0 | 2.05 | 13.68 | 37.7 | 0 | 1.43 | 3.82 | 6.87 | |||||
| 01:34 | Trim Patrick St | 1 | 12.9 | 72 | 38,460 | 0.25 | 5.12 | 3.77 | 30.45 | 13.62 | 0 | 3.71 | 7.89 | 8.67 | |||||
| 01:34 | Trim Market St | 2 | 14.6 | 64 | 57,674 | 0.28 | 0 | 2.01 | 14.57 | 38.73 | 0 | 0.71 | 3.83 | 5.54 | |||||
| 01:33 | Trim Patrick St | 2 | 12.9 | 72 | 38,460 | 0.25 | 5.17 | 3.76 | 32.26 | 10.92 | 0 | 4.57 | 8.61 | 9.47 | |||||
| 01:32 | Trim Patrick St | 2 | 12.9 | 72 | 38,460 | 0.25 | 5.27 | 3.76 | 32.26 | 12.1 | 0 | 3.71 | 7.89 | 8.68 | |||||
| 01:31 | Trim Patrick St | 2 | 13 | 72 | 38,460 | 0.23 | 5.4 | 3.73 | 33.54 | 12.95 | 0 | 2.86 | 7.18 | 7.9 | |||||
| 01:31 | Trim Market St | 2 | 14.7 | 64 | 57,690 | 0.26 | 0 | 1.89 | 13.82 | 37.61 | 0 | 1.43 | 4.33 | 6.2 | |||||